sat.trackr.live / text

‹ back to catalog

STARLINK-36410

NORAD 67337 · 2026-003D

PAYLOAD ACTIVE UNKNOWN

§ Identity

Operator
Country
US
Launch date
2026-01-09
Launch site
AFETR
Launch vehicle
Mass (kg)
RCS (m²)

Purposes: comms

External: N2YO · Heavens-Above · Gunter

§ Orbital elements

Epoch: 2026-09-19T14:06:48.023712Z

Period
94.27 min
Inclination
43.0017°
Eccentricity
0.0000891
Mean motion
15.27591333 rev/d
Perigee alt
482.4 km
Apogee alt
483.6 km
Semi-major
6,861.2 km
B*
3.7734e-4
RAAN
212.4263°
Arg perigee
295.3626°
Mean anomaly
64.7134°
Rev number
3,847

§ Raw data

STARLINK-364101 67337U 26003D   26262.58805583  .00010139  00000+0  37734-3 0  99972 67337  43.0017 212.4263 0000891 295.3626  64.7134 15.27591333 38470

JSON: /api/v1/satellites/67337 · /tle

For live sub-satellite position, see the globe view (requires WebGL).

§ Visibility from observer

Set your observer location to see the next 7 days of passes ≥ 10°. The values pass through the URL so the page stays shareable.

No JS? Fill the form by hand. The geolocation button needs JavaScript.